| time (UTC) | temp F | wind direction | speed MPH | gust MPH | rain 1hr in | rain 24hr in | rain mn in | humidity % | barometer mb |
| 20260505051625 | 53 | 85 | 4.0 | 11.0 | 0.00 | 0.00 | 0.00 | 51 | 1007.3 |
| 20260505050615 | 56 | 295 | 6.0 | 12.0 | 0.00 | 0.00 | 0.00 | 47 | 1007.5 |
| 20260505041623 | 55 | 109 | 4.0 | 10.0 | 0.00 | 0.00 | 0.00 | 42 | 1006.9 |
| 20260505040615 | 55 | 155 | 5.0 | 9.0 | 0.00 | 0.00 | 0.00 | 42 | 1007.0 |
| 20260505035614 | 55 | 108 | 7.0 | 12.0 | 0.00 | 0.00 | 0.00 | 41 | 1006.8 |
| 20260505034622 | 54 | 76 | 6.0 | 11.0 | 0.00 | 0.00 | 0.00 | 42 | 1006.6 |
| 20260505033648 | 54 | 121 | 7.0 | 10.0 | 0.00 | 0.00 | 0.00 | 43 | 1006.5 |
| 20260505032621 | 54 | 138 | 6.0 | 9.0 | 0.00 | 0.00 | 0.00 | 43 | 1006.5 |
| 20260505031627 | 54 | 115 | 7.0 | 9.0 | 0.00 | 0.00 | 0.00 | 43 | 1006.4 |
| 20260505030638 | 55 | 111 | 6.0 | 9.0 | 0.00 | 0.00 | 0.00 | 42 | 1006.4 |
| 20260505025635 | 56 | 116 | 4.0 | 7.0 | 0.00 | 0.00 | 0.00 | 42 | 1006.2 |
| 20260505024622 | 57 | 160 | 4.0 | 6.0 | 0.00 | 0.00 | 0.00 | 41 | 1006.0 |
| 20260505023612 | 58 | 192 | 3.0 | 7.0 | 0.00 | 0.00 | 0.00 | 40 | 1005.9 |
| 20260505022644 | 59 | 124 | 4.0 | 7.0 | 0.00 | 0.00 | 0.00 | 39 | 1005.7 |
| 20260505021633 | 60 | 150 | 3.0 | 6.0 | 0.00 | 0.00 | 0.00 | 37 | 1005.8 |
| 20260505020623 | 60 | 127 | 5.0 | 8.0 | 0.00 | 0.00 | 0.00 | 36 | 1005.6 |
| 20260505015622 | 61 | 173 | 2.0 | 3.0 | 0.00 | 0.00 | 0.00 | 38 | 1005.7 |
| 20260505014631 | 60 | 15 | 1.0 | 5.0 | 0.00 | 0.00 | 0.00 | 36 | 1005.6 |
| 20260505013620 | 59 | 13 | 3.0 | 6.0 | 0.00 | 0.00 | 0.00 | 39 | 1005.8 |
| 20260505012647 | 59 | 290 | 4.0 | 9.0 | 0.00 | 0.00 | 0.00 | 39 | 1005.8 |
| 20260505011654 | 60 | 11 | 4.0 | 11.0 | 0.00 | 0.00 | 0.00 | 41 | 1006.0 |
| 20260505010624 | 60 | 306 | 7.0 | 11.0 | 0.00 | 0.00 | 0.00 | 45 | 1006.0 |
| 20260505005624 | 61 | 266 | 11.0 | 16.0 | 0.00 | 0.00 | 0.00 | 39 | 1006.0 |
| 20260505004631 | 60 | 298 | 9.0 | 21.0 | 0.00 | 0.00 | 0.00 | 43 | 1005.6 |
| 20260505003619 | 61 | 266 | 9.0 | 19.0 | 0.00 | 0.00 | 0.00 | 42 | 1005.8 |
| 20260505002629 | 65 | 277 | 10.0 | 19.0 | 0.00 | 0.00 | 0.00 | 39 | 1005.6 |
| 20260505001616 | 68 | 300 | 5.0 | 9.0 | 0.00 | 0.00 | 0.00 | 25 | 1005.4 |
| 20260505000645 | 68 | 309 | 3.0 | 5.0 | 0.00 | 0.00 | 0.00 | 28 | 1005.2 |
| 20260504235625 | 68 | 289 | 3.0 | 5.0 | 0.00 | 0.00 | 0.00 | 21 | 1005.2 |
| 20260504234616 | 69 | 284 | 2.0 | 4.0 | 0.00 | 0.00 | 0.00 | 20 | 1005.1 |
| 20260504233648 | 70 | 284 | 2.0 | 5.0 | 0.00 | 0.00 | 0.00 | 19 | 1005.2 |
| 20260504232614 | 71 | 290 | 3.0 | 8.0 | 0.00 | 0.00 | 0.00 | 21 | 1005.2 |
| 20260504231643 | 71 | 326 | 0.0 | 5.0 | 0.00 | 0.00 | 0.00 | 22 | 1005.2 |
| 20260504230630 | 70 | 308 | 3.0 | 6.0 | 0.00 | 0.00 | 0.00 | 21 | 1005.3 |
| 20260504225630 | 70 | 315 | 4.0 | 8.0 | 0.00 | 0.00 | 0.00 | 23 | 1005.3 |
| 20260504224639 | 69 | 279 | 6.0 | 9.0 | 0.00 | 0.00 | 0.00 | 23 | 1005.4 |
| 20260504223628 | 69 | 303 | 6.0 | 10.0 | 0.00 | 0.00 | 0.00 | 23 | 1005.5 |
| 20260504222618 | 70 | 286 | 6.0 | 11.0 | 0.00 | 0.00 | 0.00 | 22 | 1005.5 |
| 20260504221631 | 69 | 302 | 8.0 | 12.0 | 0.00 | 0.00 | 0.00 | 22 | 1005.6 |
| 20260504220619 | 70 | 300 | 8.0 | 12.0 | 0.00 | 0.00 | 0.00 | 22 | 1005.8 |
| 20260504215620 | 70 | 327 | 4.0 | 10.0 | 0.00 | 0.00 | 0.00 | 21 | 1005.9 |
| 20260504214630 | 70 | 347 | 5.0 | 11.0 | 0.00 | 0.00 | 0.00 | 21 | 1006.1 |
| 20260504213622 | 71 | 294 | 5.0 | 10.0 | 0.00 | 0.00 | 0.00 | 22 | 1006.1 |
| 20260504212629 | 70 | 295 | 5.0 | 11.0 | 0.00 | 0.00 | 0.00 | 23 | 1006.4 |
| 20260504211617 | 70 | 286 | 6.0 | 9.0 | 0.00 | 0.00 | 0.00 | 21 | 1006.4 |
| 20260504210624 | 70 | 309 | 3.0 | 9.0 | 0.00 | 0.00 | 0.00 | 24 | 1006.7 |
| 20260504205628 | 69 | 287 | 4.0 | 8.0 | 0.00 | 0.00 | 0.00 | 22 | 1006.7 |
| 20260504204618 | 67 | 300 | 2.0 | 5.0 | 0.00 | 0.00 | 0.00 | 25 | 1006.8 |
| 20260504203626 | 65 | 154 | 2.0 | 6.0 | 0.00 | 0.00 | 0.00 | 23 | 1007.0 |
| 20260504202613 | 65 | 82 | 4.0 | 7.0 | 0.00 | 0.00 | 0.00 | 24 | 1007.0 |
| 20260504201625 | 64 | 14 | 3.0 | 6.0 | 0.00 | 0.00 | 0.00 | 26 | 1007.2 |
| 20260504200615 | 63 | 94 | 5.0 | 10.0 | 0.00 | 0.00 | 0.00 | 24 | 1007.5 |
| 20260504195617 | 62 | 5 | 6.0 | 11.0 | 0.00 | 0.00 | 0.00 | 28 | 1007.6 |
| 20260504194647 | 62 | 136 | 3.0 | 26.0 | 0.00 | 0.00 | 0.00 | 26 | 1007.9 |
| 20260504193620 | 61 | 205 | 7.0 | 25.0 | 0.00 | 0.00 | 0.00 | 30 | 1008.3 |
| 20260504192630 | 61 | 300 | 7.0 | 14.0 | 0.00 | 0.00 | 0.00 | 32 | 1008.4 |
| 20260504191619 | 60 | 187 | 5.0 | 10.0 | 0.00 | 0.00 | 0.00 | 42 | 1008.3 |
| 20260504190613 | 58 | 167 | 3.0 | 14.0 | 0.00 | 0.00 | 0.00 | 45 | 1008.3 |
| 20260504185615 | 58 | 137 | 7.0 | 11.0 | 0.00 | 0.00 | 0.00 | 50 | 1008.3 |
| 20260504184625 | 56 | 301 | 5.0 | 12.0 | 0.00 | 0.00 | 0.00 | 54 | 1008.4 |
| 20260504183636 | 59 | 277 | 5.0 | 11.0 | 0.00 | 0.00 | 0.00 | 56 | 1008.3 |
| 20260504182623 | 62 | 284 | 6.0 | 10.0 | 0.00 | 0.00 | 0.00 | 54 | 1008.3 |
| 20260504181637 | 63 | 302 | 4.0 | 8.0 | 0.00 | 0.00 | 0.00 | 55 | 1008.3 |
| 20260504180616 | 62 | 301 | 5.0 | 8.0 | 0.00 | 0.00 | 0.00 | 56 | 1008.3 |
| 20260504175616 | 62 | 293 | 5.0 | 10.0 | 0.00 | 0.00 | 0.00 | 56 | 1008.6 |
| 20260504174624 | 61 | 318 | 3.0 | 7.0 | 0.00 | 0.00 | 0.00 | 59 | 1008.6 |
| 20260504173613 | 59 | 311 | 3.0 | 7.0 | 0.00 | 0.00 | 0.00 | 60 | 1008.7 |
| 20260504172645 | 58 | 322 | 4.0 | 8.0 | 0.00 | 0.00 | 0.00 | 62 | 1008.9 |
| 20260504171613 | 57 | 289 | 4.0 | 7.0 | 0.00 | 0.00 | 0.00 | 63 | 1008.9 |
| 20260504170642 | 57 | 267 | 4.0 | 8.0 | 0.00 | 0.00 | 0.00 | 63 | 1008.9 |
| 20260504150621 | 55 | 296 | 3.0 | 6.0 | 0.00 | 0.00 | 0.00 | 50 | 1009.3 |